This demonstration page uses our WeatherBlox Daily Observations layout. Learn more.

Left ArrowRight Arrow

Hourly Observations for July 6, 2019

Temp ( °F °C ) Dew Point ( °F °C ) Humidity (%) Winds ( mph kmh ) Pressure ( in mb ) Visibility ( mi km ) Precip ( " mm )
12:56 am 00:56 Cloudy 72 22.2 67 19.4 84 84 NE 9 15 30.11 1020 10 16 0.00 0.00
1:56 am 01:56 Cloudy 71 21.7 67 19.4 87 87 NE 7 11 30.14 1021 10 16 0.00 0.00
2:54 am 02:54 Cloudy with Thunderstorms 72 22 64 18 78 78 NNW 24 39 30.14 1021 10 16 0.00 0.00
2:56 am 02:56 Cloudy with Thunderstorms 71 21.7 63 17.2 76 76 NNW 23 37 30.18 1022 10 16 0.00 0.00
3:21 am 03:21 Cloudy with Nearby Thunderstorms 66 19 63 17 88 88 N 20 31 30.14 1021 10 16 0.08 2.03
3:47 am 03:47 Cloudy with Light Rain 64 18 63 17 94 94 N 23 37 30.15 1021 10 16 0.14 3.56
3:54 am 03:54 Cloudy with Nearby Thunderstorms 64 18 61 16 88 88 NNE 24 39 30.13 1020 10 16 0.15 3.81
3:56 am 03:56 Cloudy with Nearby Thunderstorms 64 17.8 61 16.1 90 90 NNE 24 39 30.14 1021 10 16 0.15 3.81
4:00 am 04:00 Cloudy with Nearby Thunderstorms 64 18 61 16 88 88 NNE 24 39 30.13 1020 10 16 0.02 0.51
4:14 am 04:14 Cloudy with Light Rain 64 18 61 16 88 88 ENE 17 28 30.11 1020 10 16 0.00 0.00
4:56 am 04:56 Cloudy with Light Rain 64 17.8 61 16.1 90 90 SE 10 17 30.11 1020 10 16 0.06 1.52
5:56 am 05:56 Cloudy with Light Rain 64 17.8 63 17.2 96 96 WNW 14 22 30.22 1024 10 16 0.01 0.25
6:56 am 06:56 Mostly Cloudy with Light Rain 64 17.8 62 16.7 93 93 SW 16 26 30.19 1023 10 16 0.01 0.25
7:56 am 07:56 Sunny 65 18.3 62 16.7 90 90 WSW 8 13 30.19 1022 10 16 0.00 0.03
8:56 am 08:56 Mostly Sunny 66 18.9 63 17.2 90 90 Calm 30.15 1021 10 16 0.00 0.00
9:56 am 09:56 Mostly Sunny 68 20 64 17.8 87 87 NE 7 11 30.12 1020 10 16 0.00 0.03
10:56 am 10:56 Sunny 71 21.7 65 18.3 81 81 N 13 20 30.14 1021 10 16 0.00 0.00
11:56 am 11:56 Sunny 72 22.2 65 18.3 79 79 NE 5 7 30.17 1022 10 16 0.00 0.00
12:41 pm 12:41 Mostly Cloudy 73 23 64 18 74 74 Calm 30.13 1020 10 16 0.00 0.00
12:56 pm 12:56 Mostly Cloudy 75 23.9 67 19.4 76 76 VRB 3 6 30.18 1022 10 16 0.00 0.00
1:25 pm 13:25 Partly Cloudy 75 24 66 19 74 74 VRB 3 6 30.12 1020 10 16 0.00 0.00
1:56 pm 13:56 Sunny 76 24.4 67 19.4 74 74 S 7 11 30.17 1022 10 16 0.00 0.00
2:56 pm 14:56 Sunny 77 25 65 18.3 66 66 VRB 6 9 30.15 1021 10 16 0.00 0.00
3:56 pm 15:56 Sunny 79 26.1 63 17.2 58 58 NNE 5 7 30.14 1021 10 16 0.00 0.00
4:56 pm 16:56 Sunny 79 26.1 64 17.8 60 60 undefined N/A 30.12 1020 10 16 0.00 0.00
5:56 pm 17:56 Sunny 79 26.1 63 17.2 58 58 ENE 5 7 30.11 1020 10 16 0.00 0.00
6:56 pm 18:56 Sunny 80 26.7 64 17.8 58 58 E 5 7 30.09 1019 10 16 0.00 0.00
7:56 pm 19:56 Sunny 79 26.1 66 18.9 65 65 E 6 9 30.10 1019 10 16 0.00 0.00
8:56 pm 20:56 Sunny 75 23.9 68 20 79 79 ESE 5 7 30.10 1019 10 16 0.00 0.00
9:56 pm 21:56 Clear 72 22.2 68 20 87 87 SE 7 11 30.11 1020 10 16 0.00 0.00
10:56 pm 22:56 Clear with Mist and Fog 70 21.1 68 20 93 93 SE 5 7 30.12 1020 5 8 0.00 0.03
11:56 pm 23:56 Clear 69 20.6 68 20 96 96 S 3 6 30.12 1020 10 16 0.00 0.03

Powered by AerisWeather